timestamp,surface_pressure_avg,surface_temp_avg,battery_voltage,lat,long
2018-06-25 00:00:00+00:00,290.3347,8.5,13.29,47.84626,-54.09684
2018-06-25 00:10:00+00:00,291.3581,8.3,13.13,47.84626,-54.09684
2018-06-25 00:20:00+00:00,283.7097,8.38,13.21,47.84626,-54.09684
2018-06-25 00:30:00+00:00,269.9664,8.55,13.13,47.84626,-54.09684
2018-06-25 00:40:00+00:00,265.9248,8.5,13.21,47.84626,-54.09684
2018-06-25 00:50:00+00:00,265.068,8.37,13.21,47.84626,-54.09684
2018-06-25 01:00:00+00:00,251.4731,8.4,13.13,47.84626,-54.09684
2018-06-25 01:10:00+00:00,235.7914,8.5,13.05,47.84626,-54.09684
2018-06-25 01:20:00+00:00,235.0314,8.4,13.05,47.84626,-54.09684
2018-06-25 01:30:00+00:00,233.6515,8.38,13.05,47.84626,-54.09684
2018-06-25 01:40:00+00:00,224.3681,8.53,13.13,47.84626,-54.09684
2018-06-25 01:50:00+00:00,225.4447,8.7,13.13,47.84626,-54.09684
2018-06-25 02:00:00+00:00,232.2431,8.5,13.05,47.84626,-54.09684
2018-06-25 02:10:00+00:00,228.8131,8.8,12.97,47.84626,-54.09684
2018-06-25 02:20:00+00:00,224.3515,9.16,13.05,47.84626,-54.09684
2018-06-25 02:30:00+00:00,225.9697,9.39,13.05,47.84626,-54.09684
2018-06-25 02:40:00+00:00,226.3614,9.31,13.05,47.84626,-54.09684
2018-06-25 02:50:00+00:00,217.3981,9.88,13.05,47.84626,-54.09684
2018-06-25 03:00:00+00:00,209.2714,10.29,13.05,47.84626,-54.09684
2018-06-25 03:10:00+00:00,209.3831,11.17,12.97,47.84626,-54.09684
2018-06-25 03:20:00+00:00,208.9348,11.39,13.05,47.84626,-54.09684
2018-06-25 03:30:00+00:00,207.2764,11.1,13.05,47.84626,-54.09684
2018-06-25 03:40:00+00:00,207.3114,11.1,13.05,47.84626,-54.09684
2018-06-25 03:50:00+00:00,210.9248,10.9,13.05,47.84626,-54.09684
2018-06-25 04:00:00+00:00,217.3514,10.8,12.97,47.84626,-54.09684
2018-06-25 04:10:00+00:00,219.1747,10.09,12.97,47.84626,-54.09684
2018-06-25 04:20:00+00:00,217.6898,10.35,12.97,47.84626,-54.09684
2018-06-25 04:30:00+00:00,218.0114,9.44,12.97,47.84626,-54.09684
2018-06-25 04:40:00+00:00,221.4232,9.62,13.05,47.84626,-54.09684
2018-06-25 04:50:00+00:00,224.5364,10.56,13.05,47.84626,-54.09684
2018-06-25 05:00:00+00:00,219.8198,9.03,12.97,47.84626,-54.09684
2018-06-25 05:10:00+00:00,218.1498,9.03,12.89,47.84626,-54.09684
2018-06-25 05:20:00+00:00,222.8798,9.47,12.97,47.84626,-54.09684
2018-06-25 05:30:00+00:00,225.5581,9.9,12.97,47.84626,-54.09684
2018-06-25 05:40:00+00:00,224.2731,9.61,12.97,47.84626,-54.09684
2018-06-25 05:50:00+00:00,226.1848,9.73,12.97,47.84626,-54.09684
2018-06-25 06:00:00+00:00,235.9031,8.43,12.97,47.84626,-54.09684
2018-06-25 06:10:00+00:00,243.9264,9.39,12.89,47.84626,-54.09684
2018-06-25 06:20:00+00:00,245.7248,9.6,12.97,47.84626,-54.09684
2018-06-25 06:30:00+00:00,245.6064,9.4,12.97,47.84626,-54.09684
2018-06-25 06:40:00+00:00,252.7564,8.29,12.97,47.84626,-54.09684
2018-06-25 06:50:00+00:00,260.1914,8.28,12.97,47.84626,-54.09684
2018-06-25 07:00:00+00:00,267.1614,8.54,12.89,47.84626,-54.09684
2018-06-25 07:10:00+00:00,272.5214,8.73,12.89,47.84626,-54.09684
2018-06-25 07:20:00+00:00,284.1247,8.82,12.97,47.84626,-54.09684
2018-06-25 07:30:00+00:00,286.5963,8.8,12.97,47.84626,-54.09684
2018-06-25 07:40:00+00:00,289.993,8.8,12.97,47.84626,-54.09684
2018-06-25 07:50:00+00:00,298.3047,8.78,12.97,47.84626,-54.09684
2018-06-25 08:00:00+00:00,306.223,8.76,12.89,47.84626,-54.09684
2018-06-25 08:10:00+00:00,306.2813,8.7,12.81,47.84626,-54.09684
2018-06-25 08:20:00+00:00,311.1664,8.7,12.89,47.84626,-54.09684
2018-06-25 08:30:00+00:00,316.9913,8.7,12.97,47.84626,-54.09684
2018-06-25 08:40:00+00:00,321.1896,8.75,12.97,47.84626,-54.09684
2018-06-25 08:50:00+00:00,323.6846,8.53,12.97,47.84626,-54.09684
2018-06-25 09:00:00+00:00,328.6246,7.99,12.89,47.84626,-54.09684
2018-06-25 09:10:00+00:00,329.1812,8.05,12.81,47.84626,-54.09684
2018-06-25 09:20:00+00:00,325.8213,8.2,12.89,47.84626,-54.09684
2018-06-25 09:30:00+00:00,325.1113,8.27,12.97,47.84626,-54.09684
2018-06-25 09:40:00+00:00,333.3329,8.3,12.97,47.84626,-54.09684
2018-06-25 09:50:00+00:00,331.7347,8.4,12.97,47.84626,-54.09684
2018-06-25 10:00:00+00:00,322.6563,8.4,12.97,47.84626,-54.09684
2018-06-25 10:10:00+00:00,325.738,8.4,12.89,47.84626,-54.09684
2018-06-25 10:20:00+00:00,331.9513,8.4,12.97,47.84626,-54.09684
2018-06-25 10:30:00+00:00,325.0864,8.51,13.05,47.84626,-54.09684
2018-06-25 10:40:00+00:00,319.1462,8.6,13.05,47.84626,-54.09684
2018-06-25 10:50:00+00:00,324.423,8.4,13.05,47.84626,-54.09684
2018-06-25 11:00:00+00:00,331.6046,8.4,13.05,47.84626,-54.09684
2018-06-25 11:10:00+00:00,326.4113,8.55,12.97,47.84626,-54.09684
2018-06-25 11:20:00+00:00,320.5847,8.6,13.05,47.84626,-54.09684
2018-06-25 11:30:00+00:00,319.4064,8.6,13.13,47.84626,-54.09684
2018-06-25 11:40:00+00:00,312.998,8.6,13.29,47.84626,-54.09684
2018-06-25 11:50:00+00:00,301.253,8.6,13.37,47.84626,-54.09684
2018-06-25 12:00:00+00:00,294.7314,8.52,13.44,47.84626,-54.09684
2018-06-25 12:10:00+00:00,292.248,8.52,13.37,47.84626,-54.09684
2018-06-25 12:20:00+00:00,280.5997,8.5,13.6,47.84626,-54.09684
2018-06-25 12:30:00+00:00,273.0264,8.6,13.68,47.84626,-54.09684
2018-06-25 12:40:00+00:00,276.728,8.89,13.76,47.84626,-54.09684
2018-06-25 12:50:00+00:00,275.0281,9.28,13.84,47.84626,-54.09684
2018-06-25 13:00:00+00:00,265.0181,8.64,13.84,47.84626,-54.09684
2018-06-25 13:10:00+00:00,257.2414,8.4,13.76,47.84626,-54.09684
2018-06-25 13:20:00+00:00,249.6881,8.42,14.0,47.84626,-54.09684
2018-06-25 13:30:00+00:00,236.7731,8.9,14.08,47.84626,-54.09684
2018-06-25 13:40:00+00:00,228.7715,8.8,14.16,47.84626,-54.09684
2018-06-25 13:50:00+00:00,228.5414,8.79,14.24,47.84626,-54.09684
2018-06-25 14:00:00+00:00,223.5631,8.7,14.24,47.84626,-54.09684
2018-06-25 14:10:00+00:00,211.1948,8.7,14.24,47.84626,-54.09684
2018-06-25 14:20:00+00:00,206.8414,8.7,14.64,47.84626,-54.09684
2018-06-25 14:30:00+00:00,210.6881,8.6,14.48,47.84626,-54.09684
2018-06-25 14:40:00+00:00,209.1131,8.6,14.48,47.84626,-54.09684
2018-06-25 14:50:00+00:00,200.6115,8.6,14.4,47.84626,-54.09684
2018-06-25 15:00:00+00:00,201.0231,8.6,14.24,47.84626,-54.09684
2018-06-25 15:10:00+00:00,208.2248,8.55,14.16,47.84626,-54.09684
2018-06-25 15:20:00+00:00,206.2764,8.5,14.4,47.84626,-54.09684
2018-06-25 15:30:00+00:00,201.0098,8.5,14.4,47.84626,-54.09684
2018-06-25 15:40:00+00:00,199.8414,8.75,14.4,47.84626,-54.09684
2018-06-25 15:50:00+00:00,201.7198,8.8,14.4,47.84626,-54.09684
2018-06-25 16:00:00+00:00,205.5181,8.71,14.32,47.84626,-54.09684
2018-06-25 16:10:00+00:00,207.3081,8.7,14.24,47.84626,-54.09684
2018-06-25 16:20:00+00:00,209.5448,8.7,14.32,47.84626,-54.09684
2018-06-25 16:30:00+00:00,213.3831,8.58,14.48,47.84626,-54.09684
2018-06-25 16:40:00+00:00,213.7064,8.6,14.48,47.84626,-54.09684
2018-06-25 16:50:00+00:00,214.6098,8.64,14.48,47.84626,-54.09684
2018-06-25 17:00:00+00:00,218.2731,8.6,14.4,47.84626,-54.09684
2018-06-25 17:10:00+00:00,222.0731,8.7,14.32,47.84626,-54.09684
2018-06-25 17:20:00+00:00,225.5881,8.84,14.4,47.84626,-54.09684
2018-06-25 17:30:00+00:00,225.4881,8.91,14.48,47.84626,-54.09684
2018-06-25 17:40:00+00:00,230.2281,8.9,14.48,47.84626,-54.09684
2018-06-25 17:50:00+00:00,237.5031,8.84,14.4,47.84626,-54.09684
2018-06-25 18:00:00+00:00,238.6114,8.88,14.32,47.84626,-54.09684
2018-06-25 18:10:00+00:00,238.8281,8.9,14.16,47.84626,-54.09684
2018-06-25 18:20:00+00:00,246.3547,8.9,14.16,47.84626,-54.09684
2018-06-25 18:30:00+00:00,254.5281,8.9,14.08,47.84626,-54.09684
2018-06-25 18:40:00+00:00,259.5397,8.75,14.08,47.84626,-54.09684
2018-06-25 18:50:00+00:00,261.9264,8.69,14.08,47.84626,-54.09684
2018-06-25 19:00:00+00:00,269.9197,8.51,14.0,47.84626,-54.09684
2018-06-25 19:10:00+00:00,283.2381,8.43,13.84,47.84626,-54.09684
2018-06-25 19:20:00+00:00,285.098,8.19,13.92,47.84626,-54.09684
2018-06-25 19:30:00+00:00,280.838,8.0,13.84,47.84626,-54.09684
2018-06-25 19:40:00+00:00,290.2564,7.9,13.84,47.84626,-54.09684
2018-06-25 19:50:00+00:00,309.353,7.92,13.84,47.84626,-54.09684
2018-06-25 20:00:00+00:00,311.868,8.16,13.76,47.84626,-54.09684
2018-06-25 20:10:00+00:00,308.3864,8.0,13.68,47.84626,-54.09684
2018-06-25 20:20:00+00:00,319.7613,7.9,13.68,47.84626,-54.09684
2018-06-25 20:30:00+00:00,331.2546,7.9,13.68,47.84626,-54.09684
2018-06-25 20:40:00+00:00,327.468,8.1,13.68,47.84626,-54.09684
2018-06-25 20:50:00+00:00,331.7797,8.0,13.6,47.84626,-54.09684
2018-06-25 21:00:00+00:00,348.4496,7.9,13.53,47.84626,-54.09684
2018-06-25 21:10:00+00:00,349.0846,8.15,13.37,47.84626,-54.09684
2018-06-25 21:20:00+00:00,342.6462,8.0,13.37,47.84626,-54.09684
2018-06-25 21:30:00+00:00,343.9896,7.8,13.37,47.84626,-54.09684
2018-06-25 21:40:00+00:00,344.2446,7.8,13.29,47.84626,-54.09684
2018-06-25 21:50:00+00:00,349.513,7.85,13.29,47.84626,-54.09684
2018-06-25 22:00:00+00:00,351.2796,7.93,13.21,47.84626,-54.09684
2018-06-25 22:10:00+00:00,347.1229,7.99,13.13,47.84626,-54.09684
2018-06-25 22:20:00+00:00,348.753,8.06,13.13,47.84626,-54.09684
2018-06-25 22:30:00+00:00,355.5196,8.1,13.13,47.84626,-54.09684
2018-06-25 22:40:00+00:00,349.0596,8.12,13.13,47.84626,-54.09684
2018-06-25 22:50:00+00:00,334.7396,8.17,13.13,47.84626,-54.09684
2018-06-25 23:00:00+00:00,337.5231,8.1,13.05,47.84626,-54.09684
2018-06-25 23:10:00+00:00,341.1979,8.0,12.97,47.84626,-54.09684
2018-06-25 23:20:00+00:00,335.7547,8.09,13.05,47.84626,-54.09684
2018-06-25 23:30:00+00:00,331.8964,7.98,13.05,47.84626,-54.09684
2018-06-25 23:40:00+00:00,332.1813,7.91,13.05,47.84626,-54.09684
2018-06-25 23:50:00+00:00,321.2497,8.02,13.05,47.84626,-54.09684
